Boston, MA

10:52 AM EDT on August 29, 2016 (GMT -0400)
Logan International

Weather History for KBOS - November, 2013

Change the Weather History Date:

Monday, November 4, 2013

  Actual Average Record
Temperature  
Mean Temperature 37 °F 48 °F  
Max Temperature 42 °F 55 °F 78 °F (1987)
Min Temperature 31 °F 41 °F 21 °F (1879)
Degree Days  
Heating Degree Days 28 17  
Month to date heating degree days 56 66  
Since 1 July heating degree days 408 513  
Cooling Degree Days 0 0  
Month to date cooling degree days 1 0  
Year to date cooling degree days 920 747  
Moisture  
Dew Point 19 °F    
Average Humidity 48    
Maximum Humidity 59    
Minimum Humidity 36    
Precipitation  
Precipitation 0.00 in 0.13 in 2.18 in (1955)
Month to date precipitation 0.06 0.52  
Year to date precipitation 33.08 36.52  
Sea Level Pressure  
Sea Level Pressure 30.62 in    
Wind  
Wind Speed 9 mph (NNE)    
Max Wind Speed 17 mph    
Max Gust Speed 22 mph    
Visibility 10 miles    
Events      
T = Trace of Precipitation, MM = Missing Value Source: NWS Daily Summary

Daily Weather History Graph

Daily Weather History Graph

Search for Another Location

Airport or City:

Trip Planner

Search our weather history database for the weather conditions in past years. The results will help you decide how hot, cold, wet, or windy it might be!

Date:

Astronomy

Nov. 04, 2013 Rise Set
Actual Time 6:21 AM EST 4:33 PM EST
Civil Twilight 5:51 AM EST 5:02 PM EST
Nautical Twilight 5:18 AM EST 5:36 PM EST
Astronomical Twilight 4:45 AM EST 6:08 PM EST
Moon 7:29 AM EST (11/4) 5:33 PM EST (11/4)
Length of Visible Light 11h 10m
Length of Day
10h 11m
New Moon, 2% of the Moon is Illuminated
Nov 4
New Moon
Nov 10
First Quarter
Nov 17
Full
Nov 25
Last Quarter
Dec 2
New

Hourly Weather History & Observations

Time (EST) Temp. Windchill Dew Point Humidity Pressure Visibility Wind Dir Wind Speed Gust Speed Precip Events Conditions
12:54 AM 33.1 °F 24.9 °F 16.0 °F 50% 30.45 in 10.0 mi NNW 10.4 mph - N/A   Clear
1:54 AM 32.0 °F 24.2 °F 16.0 °F 52% 30.48 in 10.0 mi NNW 9.2 mph - N/A   Partly Cloudy
2:54 AM 32.0 °F 24.2 °F 16.0 °F 52% 30.50 in 10.0 mi NNW 9.2 mph - N/A   Clear
3:54 AM 30.9 °F 21.2 °F 16.0 °F 54% 30.52 in 10.0 mi North 12.7 mph - N/A   Partly Cloudy
4:54 AM 30.9 °F 22.2 °F 16.0 °F 54% 30.54 in 10.0 mi NNW 10.4 mph - N/A   Partly Cloudy
5:54 AM 30.9 °F 22.2 °F 15.1 °F 52% 30.57 in 10.0 mi North 10.4 mph - N/A   Partly Cloudy
6:54 AM 30.9 °F 21.7 °F 16.0 °F 54% 30.60 in 10.0 mi North 11.5 mph - N/A   Partly Cloudy
7:54 AM 34.0 °F 24.2 °F 16.0 °F 48% 30.62 in 10.0 mi North 15.0 mph - N/A   Partly Cloudy
8:54 AM 37.9 °F 29.6 °F 19.9 °F 48% 30.62 in 10.0 mi North 13.8 mph - N/A   Partly Cloudy
9:54 AM 39.9 °F 32.1 °F 19.9 °F 45% 30.63 in 10.0 mi NNE 13.8 mph - N/A   Partly Cloudy
10:54 AM 41.0 °F 34.3 °F 19.0 °F 41% 30.64 in 10.0 mi NE 11.5 mph - N/A   Partly Cloudy
11:54 AM 42.1 °F 35.7 °F 17.1 °F 37% 30.65 in 10.0 mi NNE 11.5 mph - N/A   Partly Cloudy
12:54 PM 42.1 °F 35.7 °F 17.1 °F 37% 30.63 in 10.0 mi ENE 11.5 mph - N/A   Scattered Clouds
1:54 PM 41.0 °F 34.7 °F 18.0 °F 40% 30.63 in 10.0 mi ENE 10.4 mph - N/A   Scattered Clouds
2:54 PM 39.9 °F 33.9 °F 18.0 °F 41% 30.64 in 10.0 mi ENE 9.2 mph - N/A   Scattered Clouds
3:54 PM 39.0 °F 34.8 °F 19.0 °F 45% 30.65 in 10.0 mi East 5.8 mph - N/A   Scattered Clouds
4:54 PM 37.9 °F - 19.9 °F 48% 30.67 in 10.0 mi Calm Calm - N/A   Scattered Clouds
5:54 PM 37.0 °F 32.4 °F 19.9 °F 50% 30.68 in 10.0 mi ENE 5.8 mph - N/A   Partly Cloudy
6:54 PM 36.0 °F 31.1 °F 19.9 °F 52% 30.69 in 10.0 mi NNE 5.8 mph - N/A   Partly Cloudy
7:54 PM 35.1 °F 28.6 °F 23.0 °F 61% 30.69 in 10.0 mi NNE 8.1 mph - N/A   Partly Cloudy
8:54 PM 37.9 °F 34.4 °F 23.0 °F 55% 30.69 in 10.0 mi North 4.6 mph - N/A   Partly Cloudy
9:54 PM 37.9 °F 35.5 °F 24.1 °F 57% 30.69 in 10.0 mi NNW 3.5 mph - N/A   Partly Cloudy
10:54 PM 37.0 °F - 23.0 °F 57% 30.69 in 10.0 mi Calm Calm - N/A   Partly Cloudy
11:54 PM 36.0 °F 32.1 °F 24.1 °F 62% 30.71 in 10.0 mi NW 4.6 mph - N/A   Scattered Clouds